When you browse on this site, cookies collect data to enhance your experience and personalize the content and advertising you see.
Visit our Privacy Policy to learn more. By continuing to use the site, you agree to this use of cookies and data.
EN

Hourly Weather Luksor

Today, 15 July, Wednesday

Time Temperature Precipitation Wind Pressure Humidity
00:00 +33°C° 0 mm 3 mps 746 mmHg 14%
01:00 +31°C° 0 mm 2 mps 746 mmHg 16%
02:00 +30°C° 0 mm 2 mps 746 mmHg 18%
03:00 +29°C° 0 mm 2 mps 746 mmHg 19%
04:00 +28°C° 0 mm 1 mps 747 mmHg 20%
05:00 +28°C° 0 mm 1 mps 747 mmHg 21%
06:00 +30°C° 0 mm 1 mps 747 mmHg 18%
07:00 +34°C° 0 mm 2 mps 748 mmHg 15%
08:00 +37°C° 0 mm 2 mps 748 mmHg 13%
09:00 +39°C° 0 mm 2 mps 748 mmHg 11%
10:00 +42°C° 0 mm 3 mps 748 mmHg 9%
11:00 +44°C° 0 mm 3 mps 748 mmHg 8%
12:00 +45°C° 0 mm 4 mps 747 mmHg 7%
13:00 +47°C° 0 mm 4 mps 747 mmHg 6%
14:00 +48°C° 0 mm 5 mps 746 mmHg 5%
15:00 +47°C° 0 mm 6 mps 746 mmHg 6%
16:00 +47°C° 0 mm 6 mps 746 mmHg 6%
17:00 +47°C° 0 mm 7 mps 745 mmHg 6%
18:00 +45°C° 0 mm 7 mps 746 mmHg 8%
19:00 +41°C° 0 mm 6 mps 746 mmHg 9%
20:00 +39°C° 0 mm 6 mps 746 mmHg 11%
21:00 +37°C° 0 mm 5 mps 746 mmHg 13%
22:00 +36°C° 0 mm 5 mps 746 mmHg 15%
23:00 +35°C° 0 mm 4 mps 747 mmHg 17%

Tomorrow, 16 July, Thursday

Time Temperature Precipitation Wind Pressure Humidity
00:00 +34°C° 0 mm 4 mps 746 mmHg 19%
01:00 +33°C° 0 mm 4 mps 746 mmHg 20%
02:00 +31°C° 0 mm 3 mps 746 mmHg 22%
03:00 +30°C° 0 mm 3 mps 746 mmHg 24%
04:00 +29°C° 0 mm 3 mps 746 mmHg 27%
05:00 +28°C° 0 mm 2 mps 746 mmHg 30%
06:00 +30°C° 0 mm 3 mps 746 mmHg 28%
07:00 +33°C° 0 mm 3 mps 746 mmHg 27%
08:00 +36°C° 0 mm 4 mps 746 mmHg 25%
09:00 +39°C° 0 mm 5 mps 746 mmHg 21%
10:00 +42°C° 0 mm 6 mps 746 mmHg 17%
11:00 +45°C° 0 mm 7 mps 746 mmHg 13%
12:00 +46°C° 0 mm 8 mps 745 mmHg 12%
13:00 +46°C° 0 mm 8 mps 745 mmHg 11%
14:00 +48°C° 0 mm 8 mps 744 mmHg 11%
15:00 +47°C° 0 mm 9 mps 744 mmHg 11%
16:00 +45°C° 0 mm 9 mps 743 mmHg 11%
17:00 +45°C° 0 mm 9 mps 743 mmHg 11%
18:00 +43°C° 0 mm 9 mps 744 mmHg 12%
19:00 +40°C° 0 mm 8 mps 744 mmHg 13%
20:00 +38°C° 0 mm 8 mps 744 mmHg 14%
21:00 +36°C° 0 mm 7 mps 745 mmHg 16%
22:00 +35°C° 0 mm 6 mps 745 mmHg 17%
23:00 +34°C° 0 mm 5 mps 745 mmHg 19%

Day after tomorrow, 17 July, Friday

Time Temperature Precipitation Wind Pressure Humidity
00:00 +33°C° 0 mm 5 mps 745 mmHg 23%
01:00 +32°C° 0 mm 4 mps 745 mmHg 27%
02:00 +29°C° 0 mm 4 mps 744 mmHg 31%
03:00 +29°C° 0 mm 3 mps 744 mmHg 35%
04:00 +28°C° 0 mm 3 mps 744 mmHg 39%
05:00 +27°C° 0 mm 3 mps 744 mmHg 44%
06:00 +29°C° 0 mm 4 mps 745 mmHg 41%
07:00 +30°C° 0 mm 4 mps 745 mmHg 38%
08:00 +32°C° 0 mm 5 mps 745 mmHg 35%
09:00 +35°C° 0 mm 6 mps 745 mmHg 29%
10:00 +38°C° 0 mm 6 mps 745 mmHg 23%
11:00 +40°C° 0 mm 7 mps 744 mmHg 17%
12:00 +41°C° 0 mm 7 mps 744 mmHg 16%
13:00 +42°C° 0 mm 6 mps 743 mmHg 14%
14:00 +45°C° 0 mm 6 mps 743 mmHg 13%
15:00 +44°C° 0 mm 6 mps 743 mmHg 13%
16:00 +44°C° 0 mm 6 mps 743 mmHg 13%
17:00 +44°C° 0 mm 6 mps 743 mmHg 13%
18:00 +41°C° 0 mm 6 mps 743 mmHg 15%
19:00 +39°C° 0 mm 6 mps 744 mmHg 17%
20:00 +36°C° 0 mm 6 mps 744 mmHg 18%
21:00 +36°C° 0 mm 5 mps 744 mmHg 20%
22:00 +35°C° 0 mm 5 mps 744 mmHg 21%
23:00 +34°C° 0 mm 5 mps 745 mmHg 22%

18 July, Saturday

Time Temperature Precipitation Wind Pressure Humidity
00:00 +33°C° 0 mm 5 mps 745 mmHg 23%
01:00 +32°C° 0 mm 4 mps 744 mmHg 24%
02:00 +32°C° 0 mm 4 mps 744 mmHg 26%
03:00 +29°C° 0 mm 3 mps 744 mmHg 29%
04:00 +28°C° 0 mm 2 mps 745 mmHg 32%
05:00 +27°C° 0 mm 2 mps 745 mmHg 36%
06:00 +29°C° 0 mm 2 mps 745 mmHg 34%
07:00 +31°C° 0 mm 2 mps 745 mmHg 33%
08:00 +34°C° 0 mm 3 mps 745 mmHg 31%
09:00 +36°C° 0 mm 2 mps 745 mmHg 27%
10:00 +38°C° 0 mm 2 mps 745 mmHg 24%
11:00 +39°C° 0 mm 1 mps 745 mmHg 20%
12:00 +41°C° 0 mm 1 mps 745 mmHg 18%
13:00 +42°C° 0 mm 1 mps 744 mmHg 15%
14:00 +43°C° 0 mm 1 mps 744 mmHg 13%
15:00 +43°C° 0 mm 1 mps 744 mmHg 13%
16:00 +43°C° 0 mm 1 mps 744 mmHg 12%
17:00 +43°C° 0 mm 1 mps 744 mmHg 12%
18:00 +41°C° 0 mm 2 mps 744 mmHg 13%
19:00 +39°C° 0 mm 3 mps 745 mmHg 15%
20:00 +37°C° 0 mm 4 mps 745 mmHg 17%
21:00 +37°C° 0 mm 4 mps 745 mmHg 18%
22:00 +36°C° 0 mm 4 mps 745 mmHg 20%
23:00 +35°C° 0 mm 5 mps 746 mmHg 22%

19 July, Sunday

Time Temperature Precipitation Wind Pressure Humidity
00:00 +34°C° 0 mm 4 mps 746 mmHg 23%
01:00 +34°C° 0 mm 4 mps 745 mmHg 24%
02:00 +33°C° 0 mm 3 mps 745 mmHg 24%
03:00 +31°C° 0 mm 3 mps 745 mmHg 26%
04:00 +30°C° 0 mm 2 mps 745 mmHg 27%
05:00 +29°C° 0 mm 1 mps 745 mmHg 28%
06:00 +31°C° 0 mm 2 mps 746 mmHg 26%
07:00 +34°C° 0 mm 2 mps 746 mmHg 23%
08:00 +36°C° 0 mm 2 mps 746 mmHg 21%
09:00 +38°C° 0 mm 2 mps 746 mmHg 19%
10:00 +40°C° 0 mm 2 mps 746 mmHg 16%
11:00 +43°C° 0 mm 2 mps 746 mmHg 14%
12:00 +43°C° 0 mm 2 mps 745 mmHg 12%
13:00 +45°C° 0 mm 3 mps 745 mmHg 11%
14:00 +46°C° 0 mm 3 mps 744 mmHg 10%
15:00 +46°C° 0 mm 3 mps 744 mmHg 10%
16:00 +46°C° 0 mm 3 mps 744 mmHg 9%
17:00 +46°C° 0 mm 3 mps 744 mmHg 9%
18:00 +44°C° 0 mm 3 mps 744 mmHg 11%
19:00 +42°C° 0 mm 3 mps 745 mmHg 13%
20:00 +39°C° 0 mm 3 mps 746 mmHg 15%
21:00 +37°C° 0 mm 3 mps 746 mmHg 16%
22:00 +36°C° 0 mm 3 mps 746 mmHg 17%
23:00 +35°C° 0 mm 2 mps 746 mmHg 19%

20 July, Monday

Time Temperature Precipitation Wind Pressure Humidity
00:00 +35°C° 0 mm 2 mps 745 mmHg 20%
01:00 +34°C° 0 mm 3 mps 745 mmHg 21%
02:00 +34°C° 0 mm 3 mps 745 mmHg 23%
03:00 +33°C° 0 mm 3 mps 745 mmHg 24%
04:00 +33°C° 0 mm 3 mps 745 mmHg 25%
05:00 +31°C° 0 mm 3 mps 745 mmHg 27%
06:00 +34°C° 0 mm 3 mps 745 mmHg 24%
07:00 +36°C° 0 mm 3 mps 746 mmHg 22%
08:00 +38°C° 0 mm 3 mps 746 mmHg 20%
09:00 +41°C° 0 mm 4 mps 746 mmHg 17%
10:00 +43°C° 0 mm 5 mps 746 mmHg 14%
11:00 +47°C° 0 mm 5 mps 746 mmHg 12%
12:00 +47°C° 0 mm 6 mps 745 mmHg 11%
13:00 +48°C° 0 mm 6 mps 745 mmHg 11%
14:00 +49°C° 0 mm 7 mps 744 mmHg 10%
15:00 +49°C° 0 mm 7 mps 744 mmHg 10%
16:00 +48°C° 0 mm 6 mps 744 mmHg 10%
17:00 +48°C° 0 mm 6 mps 744 mmHg 10%
18:00 +46°C° 0 mm 6 mps 744 mmHg 11%
19:00 +44°C° 0 mm 6 mps 745 mmHg 12%
20:00 +41°C° 0 mm 6 mps 745 mmHg 13%
21:00 +40°C° 0 mm 6 mps 745 mmHg 14%
22:00 +39°C° 0 mm 6 mps 745 mmHg 16%
23:00 +38°C° 0 mm 6 mps 745 mmHg 17%
Show more